DELTA 1 R/B, 2096

Orbit data source: Space-Track

DELTA 1 R/B, 2096 is space debris in SSO originally from a launch on Mon, 28 Feb 1966 UTC launched from the Air Force Eastern Test Range (AFETR). Debris objects in space refer to the collection of defunct objects orbiting the Earth. Examples of debris include non-operational satellites, rocket bodies, and fragments generated from explosions, collisions, or faulty payload assembly.

Loading next visibility...
Identifier
2096, 1966-016B
Orbit
SSO
Country
Flag of USUS
Related business
Manufacturer
ABL
Mission
Spacecraft
Bus & Motor
ALTAIR, Unknown motor
Mass
33 kg wet, 33 kg dry
Launch date (UTC)
1966-02-28 (60 years ago)
Launch vehicle
Unknown
Launch site
Air Force Eastern Test Range (AFETR)
Object type
Payload
Rocket body
Debris
Shape & HBR
Unknown
Radar Cross Section
Medium (>0.1 m² and <1 m²)

Expand to show TLE details & history
Last TLE update: 10 hours ago

TLE from 10 hours ago
0 DELTA 1 R/B
1  2096U 66016B   26112.04970647 -.00000040  00000-0  87897-5 0  9994
2  2096 100.8823 312.7031 0039328 277.6240 240.2443 12.69994860786948
Epoch: 2026-04-22T01:11Z
TLE epoch observation values (Epoch: 2026-04-22T01:11:34.639Z)
Latitude
22.11016°
Longitude
-90.85054°
Altitude
1,399.644 km
Speed
7.155 km/s
True Right ascension
09h 08m 38s
True Declination
22° 00' 01"
Sunlit
Object was in daylight at epoch
Visualization orbit readout
Latitude
Unknown
Longitude
Unknown
Altitude
Unknown
Speed
Unknown
Apparent Right ascension
Unknown
Apparent Declination
Unknown
Sunlit
N/A
Visualization observer readout
Local Sidereal Time
17:56:39
Azimuth
Unknown
Elevation
Unknown
Doppler factor
Unknown
Orbital elements
Apogee altitude
1,409.941 km
Perigee altitude
1,348.923 km
Semi-major axis
7,757.569 km
Eccentricity
0.00393
Inclination
100.8823°
RAAN
312.7031°
Arg. of periapsis
277.624°
True anomaly
239.85401°
Mean anomaly
240.2443°
Eccentric anomaly
240.04906°
Mean motion
3.17654 °/min
Orbital period
113.33 mins
BSTAR
0.0000087897
Loading maneuver chart data...
Computing Atmospheric mass density...
Loading historical data...
Loading historical data...
Loading historical data...
Loading historical data...
Loading historical data...
Loading historical data...
Loading historical data...
Other satellites on launch #16 in the year 1966 (1966-02-28 UTC)

Documentation

Showing up to 5 results
|